Location: Irma
(52.9170°N, 111.2330°W)
Time: 14:29:07
(UTC-06:00)

Daily predictions for brighter satellites

Satellite Brightness Start Highest point End
(mag) Time Altitude Azimuth Time Altitude Azimuth Time Altitude Azimuth
ATLAS 5 CENTAUR R/B 3.0 19:35:32 10° S 19:39:26 24° ESE 19:43:37 10° ENE
Cosmos 2237 Rocket 2.3 19:34:25 10° SSW 19:40:08 90° NW 19:45:51 10° NNE
COSMOS 2428 4.0 19:34:48 10° WSW 19:40:14 43° NW 19:45:43 10° NNE
Nadezhda 4 Rocket 4.4 19:34:45 10° N 19:40:44 42° ENE 19:46:37 10° SE
USA 238 DEB 3.8 19:35:36 10° SW 19:42:38 79° SE 19:49:42 10° NE
USA 238 3.8 19:35:41 10° SW 19:42:44 78° SE 19:49:48 10° NE
NOSS 0 Rocket 4.1 19:36:44 10° SW 19:42:56 82° NW 19:49:12 10° NNE
Meteor 1-21 Rocket 4.3 19:40:56 10° N 19:46:25 54° ENE 19:51:50 10° SSE
Cosmos 1420 Rocket 4.1 19:43:19 10° NNW 19:48:34 59° ENE 19:53:49 10° SE
Cosmos 1072 Rocket 4.5 19:44:30 10° S 19:50:28 60° E 19:56:30 10° NNE
Helios 1B rocket 3.3 19:47:56 10° NE 19:51:29 27° E 19:55:01 10° SSE
Cosmos 1766 3.3 19:47:39 10° S 19:51:34 62° E 19:55:33 10° NNE
Cosmos 1980 4.1 19:48:47 10° SW 19:54:26 70° NW 20:00:08 10° NNE
Cosmos 1766 Rocket 3.5 19:51:11 10° N 19:55:36 76° ENE 19:59:57 10° SSE
Cosmos 1544 4.2 19:53:49 10° SE 19:56:51 24° E 19:59:56 10° NE
Cosmos 1378 3.9 19:54:31 10° NNW 19:58:13 58° W 20:01:53 10° S
ERBS 2.9 19:55:29 10° WNW 19:58:55 50° NNE 20:01:57 13° E
Cosmos 1076 Rocket 3.6 19:56:34 10° NNW 20:00:54 82° W 20:05:15 10° S
SL-16 R/B 2.2 19:55:27 10° SSW 20:01:05 66° ESE 20:06:45 10° NE
CZ-2D R/B 3.9 20:01:14 10° SE 20:04:48 35° ENE 20:08:23 10° N
METEOR-M 4.2 20:00:04 10° SSE 20:05:26 88° ENE 20:10:50 10° NNW
Lacrosse 4 Rocket 4.1 20:03:47 10° NW 20:05:58 13° NNW 20:08:10 10° NNE
CENTAUR R/B 3.8 20:03:54 10° SE 20:07:46 17° ESE 20:11:54 10° ENE
H-2A R/B 4.2 20:06:06 10° ENE 20:07:49 12° NE 20:09:33 10° NNE
Cosmos 292 Rocket 4.4 20:03:13 10° SW 20:07:59 61° WNW 20:12:48 10° NNE
Spot 1 4.3 20:04:21 10° SSE 20:08:59 83° WSW 20:13:23 10° NNW
Meteor 1-28 Rocket 3.1 20:05:36 10° NNE 20:09:20 69° ESE 20:13:03 10° S
Spot 2 Rocket 3.5 20:06:17 10° SSE 20:11:19 90° ENE 20:16:25 10° NNW
Cosmos-2242 3.2 20:10:21 10° SSE 20:14:34 49° E 20:18:50 10° NNE
NOSS 3-2 (C) 3.7 20:08:36 10° SSW 20:14:35 53° SE 20:21:11 10° NE
Cosmos 2219 Rocket 3.5 20:10:51 10° WSW 20:16:10 41° NW 20:21:34 10° NNE
Cosmos 2151 3.9 20:12:52 10° N 20:16:35 29° ENE 20:19:18 15° ESE
Cosmos 192 4.3 20:13:23 10° SSW 20:18:20 72° ESE 20:23:19 10° NNE
Cosmos 2058 4.2 20:15:25 10° NNE 20:18:39 22° ENE 20:20:16 18° E
H-2A R/B 3.1 20:15:02 10° SE 20:18:47 46° ENE 20:22:30 10° N
FENGYUN 3A 3.7 20:13:58 10° SSE 20:19:17 65° ENE 20:24:40 10° N
Cosmos 482 Debris 3.1 20:17:16 10° W 20:19:24 74° S 20:21:08 21° E
Cosmos 1805 3.3 20:16:21 10° S 20:20:13 59° E 20:24:08 10° NNE
Cosmos 2221 4.4 20:21:29 13° ENE 20:21:29 13° ENE 20:22:38 10° NE
Cosmos 1953 2.2 20:18:04 10° S 20:22:00 63° E 20:25:58 10° NNE
Envisat 4.1 20:19:34 16° ESE 20:22:26 26° ENE 20:26:37 10° N
HJ-1C 3.9 20:21:44 10° S 20:25:04 61° WSW 20:28:26 10° NNW
Cosmos 2034 Rocket 4.0 20:19:07 10° S 20:25:22 74° E 20:31:44 10° NNE
Cosmos 1464 Rocket 4.0 20:20:14 10° S 20:26:29 87° WNW 20:32:41 10° N
ALOS 2.2 20:23:33 10° SSE 20:28:12 75° ENE 20:32:54 10° NNW
Cosmos 1408 Rocket 4.5 20:24:01 10° NNW 20:28:16 51° W 20:32:28 10° S
Cosmos 1500 Rocket 3.6 20:24:17 10° N 20:28:42 63° ENE 20:33:07 10° SSE
CZ-4C R/B 2.8 20:23:13 10° WSW 20:28:48 64° NW 20:35:15 10° NE
Cosmos 1607 4.5 20:23:30 10° WSW 20:29:35 59° NW 20:35:42 10° NE
USA 186 1.4 20:33:04 38° ENE 20:33:10 38° ENE 20:35:27 10° N
Cosmos 1842 Rocket 3.9 20:30:35 10° SSE 20:34:38 40° E 20:38:44 10° NNE
Cosmos 1943 Rocket 2.6 20:30:53 10° NNW 20:36:19 45° NE 20:39:39 22° ESE
ATLAS CENTAUR R/B 4.3 20:30:07 10° SSW 20:36:31 65° SE 20:57:51 10° ENE
Cosmos 2369 Rocket 2.2 20:30:56 10° NNW 20:36:37 80° ENE 20:41:35 14° SE
Aureole 2 Rocket 3.9 20:37:05 10° SW 20:41:20 51° WNW 20:45:25 10° NNE
USA 215 3.7 20:37:01 12° ENE 20:42:46 40° SE 20:48:50 10° SSW
Cosmos 1943 3.9 20:38:49 10° SSE 20:43:35 29° ESE 20:48:21 10° NE
Cosmos 1470 3.0 20:40:05 10° SSE 20:43:47 44° E 20:47:31 10° NNE
Cosmos 2263 4.2 20:38:02 10° NNW 20:43:52 70° NE 20:47:58 20° SE
Meteor 1-29 2.9 20:41:15 10° NNE 20:44:48 77° ESE 20:48:18 10° S
Cosmos 1733 3.6 20:43:41 14° SSE 20:46:43 40° E 20:50:22 10° NNE
CZ-4 DEB 4.0 20:47:14 25° NE 20:47:14 25° NE 20:49:31 10° N
Cosmos 1603 3.7 20:42:56 10° SSW 20:48:36 62° ESE 20:54:18 10° NE
SeaSat 1 4.0 20:46:16 10° NE 20:55:13 - SSE 20:47:51 17° ENE
CZ-4B DEB 3.3 20:47:57 10° S 20:51:11 60° WSW 20:54:27 10° NNW
Cosmos 1674 2.9 20:48:11 10° NNW 20:52:05 73° W 20:55:57 10° S
Helios 1A 4.4 20:52:36 10° SSW 20:56:33 38° W 21:00:32 10° NNW
Cosmos 1743 Rocket 4.4 20:53:12 10° NNW 20:57:33 53° W 21:01:50 10° S
ERS-1 Rocket 3.2 20:55:23 27° SE 20:57:49 51° ENE 21:02:41 10° N
Cosmos 1110 Rocket 4.0 20:54:17 10° NNW 20:59:36 73° ENE 21:02:37 26° SE
Resurs 01 Rocket 3.3 20:56:08 10° SSW 21:00:12 34° W 21:04:18 10° NNW
Cosmos 2333 Rocket 4.1 20:59:29 10° W 21:04:31 30° NW 21:09:33 10° NNE
Cosmos 724 4.3 20:59:04 10° SSW 21:05:01 74° SE 21:11:10 10° NE
Cosmos 1758 4.4 21:01:18 10° SSW 21:05:17 48° WNW 21:09:18 10° N
ATLAS 3B R/B 3.9 20:58:53 10° W 21:05:58 43° NNW 21:12:45 10° NE
YAOGAN 6 4.3 21:10:26 21° NE 21:10:26 21° NE 21:12:25 10° N
BREEZE-M DEB (TANK) 4.1 21:02:08 10° WSW 21:13:09 57° S 21:14:54 37° ESE
Terra 3.9 21:14:49 13° NE 21:14:49 13° NE 21:16:49 10° NNE
Sich 1 3.5 21:13:24 10° N 21:17:34 41° ENE 21:17:34 41° ENE
SJ-11-01 4.2 21:16:01 35° SSE 21:18:02 80° ENE 21:22:45 10° NNW
Meteor 1-11 4.2 21:13:03 10° NNW 21:18:55 84° ENE 21:22:26 25° SSE
Cosmos 1437 Rocket 4.5 21:21:11 21° NE 21:21:11 21° NE 21:22:41 10° NNE
GP-B 3.0 21:15:42 10° N 21:20:11 87° W 21:23:17 20° S
Meteor 1-16 Rocket 4.1 21:18:51 27° SSE 21:21:32 55° E 21:26:45 10° NNE
ATLAS 5 CENTAUR R/B 2.0 21:18:36 10° SW 21:23:33 78° NW 21:29:03 10° NE
Cosmos 2237 Rocket 4.3 21:20:14 10° W 21:24:59 26° NW 21:29:43 10° NNE
NOSS 3-2 (A) 3.9 21:20:01 10° WSW 21:26:17 67° NW 21:33:17 10° NE
Helios 1B rocket 3.9 21:23:05 10° N 21:26:55 38° WNW 21:30:45 10° SW
Cosmos 1328 4.2 21:23:08 10° NNW 21:27:04 60° W 21:28:46 31° SSW
ASTEX 1 3.9 21:22:20 10° N 21:27:12 60° WNW 21:32:00 10° SSW
Cosmos 1626 3.8 21:27:59 10° N 21:29:57 24° NNE 21:29:57 24° NNE
Cosmos 1331 Rocket 4.1 21:27:21 10° NNW 21:32:41 75° WSW 21:34:49 37° S
Cosmos 2279 Rocket 4.0 21:30:58 32° SSE 21:33:46 59° E 21:39:51 10° NNE
Cosmos 1939 Rocket 2.7 21:33:52 79° SSE 21:34:07 88° ENE 21:38:06 10° NNW
SL-14 R/B 3.3 21:30:55 10° NNW 21:34:59 79° W 21:35:30 65° SSW
ERBS 3.0 21:32:21 10° WNW 21:35:22 50° WSW 21:35:22 50° WSW
Cosmos 1655 Rocket 4.0 21:30:50 10° NNW 21:37:05 83° W 21:40:56 25° S
MetOp-A 4.2 21:37:30 52° E 21:38:15 57° ENE 21:43:32 10° N
Cosmos 1805 Rocket 3.5 21:35:49 10° NNW 21:40:17 86° W 21:40:53 67° S
Cosmos 1656 Rocket 3.6 21:37:18 10° NNW 21:42:43 62° NE 21:43:25 56° E
H-2A R/B 2.2 21:43:11 60° NE 21:43:11 60° NE 21:47:25 10° N
Cosmos 1302 Rocket 3.9 21:39:34 10° NNW 21:44:49 88° ENE 21:45:43 62° SSE
Cosmos 2266 Rocket 4.1 21:38:50 10° N 21:45:06 54° ENE 21:46:01 49° ESE
SL-16 R/B 3.9 21:40:32 10° WSW 21:45:39 33° NW 21:50:47 10° NNE
Lacrosse 4 Rocket 4.0 21:44:21 10° NNW 21:46:37 13° NNE 21:48:05 12° NE
ARGOS 3.5 21:47:21 45° ENE 21:47:27 45° ENE 21:52:37 10° N
Cosmos 2026 Rocket 4.2 21:41:33 10° NNW 21:47:35 65° W 21:51:47 21° S
Cosmos 1428 Rocket 4.4 21:44:35 10° N 21:50:54 87° W 21:53:25 40° S
SPOT 5 2.8 21:53:01 61° NNE 21:53:01 61° NNE 21:56:48 10° NNW
Cosmos 1633 Rocket 3.2 21:49:07 10° N 21:52:58 66° NNE 21:52:58 66° NNE
Cosmos 2151 4.4 21:50:06 10° NNW 21:53:58 35° W 21:55:56 23° SW
Cosmos 2058 3.7 21:51:54 10° NNW 21:55:52 46° W 21:56:32 42° SW
Cosmos 1634 Rocket 4.3 21:50:17 10° SSW 21:56:29 66° WNW 22:02:41 10° N
CENTAUR R/B 2.5 21:50:51 10° SSW 21:57:04 69° SE 22:04:10 10° NE
Cosmos 2221 2.9 21:58:20 59° N 21:58:20 59° N 22:01:53 10° N
Envisat 3.3 21:59:46 45° SSW 22:01:08 61° WSW 22:06:12 10° NNW
NOSS 3-2 (C) 4.2 21:59:19 10° WSW 22:05:35 55° NNW 22:12:34 10° NE
Cosmos 1980 Rocket 4.1 22:03:26 10° NNW 22:07:17 18° NNE 22:08:42 17° NE
H-2A R/B 3.0 22:12:41 35° NE 22:12:41 35° NE 22:16:23 10° N
NOAA 11 4.2 22:11:55 68° NE 22:11:55 68° NE 22:17:03 10° NNW
CZ-4C R/B 3.8 22:13:01 10° WNW 22:18:28 34° N 22:23:47 13° NE
Cosmos 1666 Rocket 4.3 22:14:50 10° NNW 22:18:54 50° W 22:18:54 50° W
Cosmos 158 Rocket 4.4 22:15:13 10° SW 22:20:00 55° WNW 22:24:51 10° NNE
Cosmos 2369 Rocket 4.2 22:15:49 10° NW 22:20:02 22° WSW 22:23:24 13° SW
Cosmos 1943 Rocket 3.0 22:14:48 10° NW 22:20:06 43° WSW 22:21:11 38° SW
USA 215 3.1 22:24:24 51° ENE 22:26:16 89° SE 22:32:50 10° WSW
Cosmos 1943 3.6 22:21:43 10° SW 22:27:18 62° NW 22:32:53 10° NNE
SeaSat 1 2.9 22:23:20 10° NNE 22:35:11 - SW 22:27:30 58° N
MetOp-B 4.4 22:32:04 63° W 22:32:04 63° W 22:37:24 10° NNW
SPOT 1/Viking Rocket 3.9 22:35:37 63° NNW 22:35:37 63° NNW 22:39:57 10° NNW
SL-16 R/B 4.4 22:34:33 10° NNW 22:37:54 16° NNE 22:39:36 14° NE
Nadezhda 2 Rocket 4.5 22:36:43 10° N 22:42:25 75° N 22:42:25 75° N
Terra 3.3 22:53:42 31° N 22:53:42 31° N 22:56:17 10° N
ATLAS 3B R/B 4.0 22:51:44 10° WNW 22:58:24 35° N 23:01:19 26° NE
Cosmos 2251 Rocket 4.4 22:59:57 45° NW 22:59:57 45° NW 23:04:31 10° NNE
Cosmos 2278 4.4 22:55:01 10° NNW 22:59:22 51° N 22:59:22 51° N
Cosmos 2322 Rocket 4.2 22:58:01 10° NNW 23:01:58 19° NNE 23:02:34 18° NE
ATLAS 5 CENTAUR R/B 3.6 23:04:22 10° W 23:09:02 33° NNW 23:11:00 26° NNE
Cosmos 2285 Rocket 4.3 23:03:48 10° NNW 23:09:11 65° NW 23:09:11 65° NW
Cosmos 1697 Rocket 3.9 23:08:53 10° NNW 23:12:44 35° N 23:12:44 35° N
Lacrosse 4 Rocket 4.0 23:22:47 10° NNW 23:24:25 19° N 23:24:25 19° N
CENTAUR R/B 3.5 23:41:50 10° W 23:48:11 49° NNW 23:55:23 10° NE
H-2A R/B 3.9 23:53:19 25° NW 23:53:19 25° NW 23:55:52 10° NNW
Cosmos 2360 Rocket 4.3 23:47:35 10° NNW 23:51:27 18° NNE 23:51:49 18° NNE
Cosmos 1980 Rocket 3.7 23:47:10 10° NNW 23:50:26 32° N 23:50:26 32° N
